User: anonymous   Login
Location: Plum
(40.5000°N, 79.7500°W)
Time: 18:34:46
(UTC-04:00)
Language:

Cosmos 1825 - Orbit

View from above orbital plane
View from above orbital plane
View from above satellite
View from above satellite

Ground track
Ground track

The orbit data is extracted from the following two-line orbital elements,

1 17566U 87024A   16178.36150699  .00001086  00000-0  52084-4 0  9996
2 17566  82.5063 282.7020 0004585  34.2746 325.8783 15.17866609599851
Epoch (UTC): 26 June 2016 08:40:34
Eccentricity: 0.0004585
inclination: 82.5063°
perigee height: 509 km
apogee height: 515 km
right ascension of ascending node: 282.7020°
argument of perigee: 34.2746°
revolutions per day: 15.17866609
mean anomaly at epoch: 325.8783°
orbit number at epoch: 59985

The dashed part of the orbit path shows where the satellite is in the earth's shadow,  

DLR